Location: Ab? ar R?sh Ba?r?
(24.1861°N, 32.8847°E)
Time: 05:30:22
(UTC+00:00)

CZ-4B R/B - Pass Details

Date: 28 May 2022
Orbit: 809 x 881 km, 99.1° (Epoch: 01 July)

Event Time Altitude Azimuth Distance (km) Brightness Sun altitude
Rises 16:56:35 0° 178° (S) 3,319 6.0 -6.2°
Reaches altitude 10° 16:58:58 10° 183° (S) 2,395 5.3 -6.7°
Maximum altitude 17:04:06 51° 259° (W) 1,023 4.1 -7.7°
Drops below altitude 10° 17:09:20 10° 335° (NNW) 2,440 6.5 -8.7°
Sets 17:11:47 0° 340° (NNW) 3,388 7.2 -9.2°
